Location: Campillo
(40.8621°N, 4.2488°W)
Time: 00:47:58
(UTC+00:00)

USA 306 - Pass Details

Date: 27 September 2021
Orbit: 564 x 573 km, 54.0° (Epoch: 24 September)

Event Time Altitude Azimuth Distance (km) Brightness Sun altitude
Rises 20:56:40 0° 311° (NW) 2,763 7.5 -32.0°
Reaches altitude 10° 20:58:55 10° 313° (NW) 1,864 6.3 -32.4°
Enters shadow 21:00:26 21° 316° (NW) 1,282 5.3 -32.7°
